Regional Weather Roundup
Issued by NWS State College, PA

Home | Current Version | Previous Version | Text Only | Print | Product List | Glossary On
Versions: 1 2 3 4 5 6 7 8 9 10 11 12 13 14 15 16 17 18 19 20 21 22 23 24 25 26 27 28 29 30 31 32 33 34 35 36 37 38 39 40 41 42 43 44 45 46 47 48 49 50
000
ASUS41 KCTP 250610
RWRCTP

REGIONAL WEATHER ROUNDUP
NATIONAL WEATHER SERVICE STATE COLLEGE PA
200 AM EDT WED MAY 25 2016

Note: "fair" indicates few or no clouds below 12,000 feet with no
significant weather and/or obstructions to visibility.

* = STATION THAT DOES NOT REPORT PRECIPITATION /E.G. RAIN...SNOW...ETC/
    THUNDER OR FOG.

PAZ002>004-007>009-013>016-020>023-029>032-250700-
WESTERN PENNSYLVANIA

CITY           SKY/WX    TMP DP  RH WIND       PRES   REMARKS
ERIE           CLEAR     62  40  44 S7        30.04S
MEADVILLE      CLEAR     59  40  49 S5        30.09S
FRANKLIN*      CLEAR     55  41  58 SW6       30.12S
NEW CASTLE     FAIR      52  49  89 CALM      30.10S
BEAVER COUNTY  NOT AVBL
BUTLER*        PTCLDY   N/A N/A N/A CALM      30.13S
PITTSBURGH INT PTCLDY    64  49  57 CALM      30.10F
PITTSBURGH     CLEAR     65  48  54 SW8       30.10F
INDIANA*       CLEAR     54  50  87 CALM      30.15S
LATROBE        CLEAR     57  52  82 CALM      30.12S
WASHINGTON CO* CLEAR     52  48  87 CALM      30.13R
$$

PAZ004>006-010>012-017>019-024>028-033>037-041-042-045-046-049>053-250700-
CENTRAL PENNSYLVANIA

CITY           SKY/WX    TMP DP  RH WIND       PRES   REMARKS
BRADFORD       CLEAR     44  38  79 CALM      30.11S
DUBOIS         CLEAR     58  39  49 CALM      30.10F
CLEARFIELD     CLEAR     52  46  80 CALM      30.10S
JOHNSTOWN      CLEAR     59  45  59 W5        30.14S
ALTOONA        CLEAR     62  45  53 SW5       30.11F
STATE COLLEGE  CLEAR     56  45  66 CALM      30.09S
WILLIAMSPORT   CLEAR     53  44  71 CALM      30.05R
SELINSGROVE    CLEAR     51  48  89 CALM      30.06R
FT INDIANTOWN  PTCLDY    55  50  82 CALM      30.05R
CAPITAL CITY   PTCLDY    66  46  48 VRB3      30.05S
HARRISBURG     PTCLDY    62  51  67 NW7       30.04S
YORK           PTCLDY    61  48  62 W6        30.06R
$$

PAZ038>040-043-044-047-048-054-055-060>062-067>071-250700-
EASTERN PENNSYLVANIA

CITY           SKY/WX    TMP DP  RH WIND       PRES   REMARKS
SCRANTON       CLEAR     54  44  69 SE3       30.04R
MOUNT POCONO   CLEAR     42  42 100 NW5       30.06S
ALLENTOWN      CLEAR     56  51  84 CALM      30.04R
QUAKERTOWN*    CLEAR     52  52 100 CALM      30.05R
READING        CLEAR     57  52  83 CALM      30.04R
LANCASTER      CLEAR     57  49  74 W7        30.04S
COATESVILLE    CLEAR     61  48  63 NW6       30.06S
POTTSTOWN      CLEAR     54  52  93 CALM      30.05S
BLUE BELL      CLEAR     54  52  94 CALM      30.03R
DOYLESTOWN     CLEAR     54  52  93 CALM      30.03R
WILLOW GROVE   NOT AVBL
NORTH PHILA    CLEAR     59  54  83 CALM      30.04R
PHILADELPHIA   PTCLDY    63  53  70 CALM      30.03S
$$




USA.gov is the U.S. government's official web portal to all federal, state and local government web resources and services.